This demonstration page uses our WeatherBlox Daily Observations layout. Learn more.

Hourly Observations for November 21, 2020

Temp ( °F °C ) Dew Point ( °F °C ) Humidity (%) Winds ( mph kmh ) Pressure ( in mb ) Visibility ( mi km ) Precip ( " mm )
12:15 am 00:15 Clear 43 6 37 3 81 81 WSW 3 6 30.34 1028 10 16.0934 0 0
12:35 am 00:35 Clear 43 6 37 3 81 81 Calm 30.34 1028 10 16.0934 0 0
12:55 am 00:55 Clear 41 5 37 3 87 87 W 3 6 30.34 1028 10 16.0934 0 0
1:15 am 01:15 Clear 43 6 37 3 81 81 WSW 5 7 30.34 1028 10 16.0934 0 0
1:35 am 01:35 Clear 43 6 37 3 81 81 Calm 30.34 1028 10 16.0934 0 0
1:55 am 01:55 Mostly Cloudy 41 5 37 3 87 87 W 5 7 30.34 1028 10 16.0934 0 0
2:15 am 02:15 Cloudy 43 6 37 3 81 81 W 5 7 30.35 1028 10 16.0934 0 0
2:35 am 02:35 Cloudy 43 6 37 3 81 81 Calm 30.34 1028 10 16.0934 0 0
2:55 am 02:55 Cloudy 45 7 39 4 81 81 Calm 30.34 1027 10 16.0934 0 0
3:15 am 03:15 Cloudy 46 8 41 5 82 82 S 3 6 30.34 1027 10 16.0934 0 0
3:35 am 03:35 Cloudy 46 8 41 5 82 82 Calm 30.34 1027 10 16.0934 0 0
3:55 am 03:55 Cloudy 50 10 41 5 71 71 SE 3 6 30.34 1027 10 16.0934 0 0
4:15 am 04:15 Cloudy 46 8 41 5 82 82 Calm 30.34 1027 10 16.0934 0 0
4:35 am 04:35 Cloudy 46 8 41 5 82 82 Calm 30.34 1027 10 16.0934 0 0
4:55 am 04:55 Cloudy 46 8 43 6 87 87 Calm 30.35 1028 10 16.0934 0 0
5:15 am 05:15 Partly Cloudy 50 10 43 6 76 76 Calm 30.36 1028 10 16.0934 0 0
5:35 am 05:35 Partly Cloudy 50 10 43 6 76 76 S 3 6 30.36 1028 10 16.0934 0 0
5:55 am 05:55 Partly Cloudy 50 10 45 7 82 82 WNW 9 15 30.37 1028 10 16.0934 0 0
6:15 am 06:15 Clear 55 13 48 9 77 77 NW 9 15 30.36 1028 10 16.0934 0 0
6:35 am 06:35 Partly Cloudy 61 16 50 10 68 68 NW 6 9 30.37 1028 10 16.0934 0 0
6:55 am 06:55 Cloudy 61 16 50 10 68 68 WNW 8 13 30.37 1028 10 16.0934 0 0
7:15 am 07:15 Cloudy 61 16 50 10 68 68 NW 8 13 30.37 1028 10 16.0934 0 0
7:35 am 07:35 Mostly Cloudy 57 14 50 10 77 77 NW 7 11 30.37 1028 10 16.0934 0 0
7:55 am 07:55 Partly Cloudy 61 16 50 10 68 68 NNW 8 13 30.38 1029 10 16.0934 0 0
8:15 am 08:15 Partly Cloudy 59 15 52 11 77 77 NW 8 13 30.38 1029 10 16.0934 0 0
8:35 am 08:35 Cloudy 61 16 52 11 72 72 NW 8 13 30.38 1029 10 16.0934 0 0
8:55 am 08:55 Cloudy 61 16 52 11 72 72 Calm 30.39 1029 10 16.0934 0 0
9:15 am 09:15 Cloudy 61 16 50 10 68 68 Calm 30.39 1029 10 16.0934 0 0
9:35 am 09:35 Cloudy 61 16 52 11 72 72 NNE 5 7 30.38 1029 10 16.0934 0 0
9:55 am 09:55 Cloudy 63 17 52 11 68 68 NNW 5 7 30.39 1029 10 16.0934 0 0
10:15 am 10:15 Cloudy 63 17 52 11 68 68 N 5 7 30.39 1029 10 16.0934 0 0
10:35 am 10:35 Mostly Cloudy 63 17 52 11 68 68 N 5 7 30.39 1029 10 16.0934 0 0
10:55 am 10:55 Mostly Cloudy 64 18 52 11 64 64 N 3 6 30.38 1029 10 16.0934 0 0
11:15 am 11:15 Mostly Cloudy 64 18 52 11 64 64 Calm 30.37 1029 10 16.0934 0 0
11:35 am 11:35 Partly Cloudy 64 18 52 11 64 64 Calm 30.36 1028 10 16.0934 0 0
11:55 am 11:55 Cloudy 64 18 52 11 64 64 NNW 6 9 30.36 1028 10 16.0934 0 0
12:15 pm 12:15 Cloudy 64 18 52 11 64 64 N 3 6 30.35 1028 10 16.0934 0 0
12:35 pm 12:35 Cloudy 64 18 52 11 64 64 Calm 30.34 1028 10 16.0934 0 0
12:55 pm 12:55 Cloudy 64 18 52 11 64 64 NW 3 6 30.34 1028 10 16.0934 0 0
1:15 pm 13:15 Cloudy 64 18 52 11 64 64 NW 7 11 30.34 1028 10 16.0934 0 0
1:35 pm 13:35 Cloudy 63 17 52 11 68 68 NNW 6 9 30.35 1028 10 16.0934 0 0
1:55 pm 13:55 Cloudy 63 17 52 11 68 68 NNW 5 7 30.35 1028 10 16.0934 0 0
2:15 pm 14:15 Cloudy 63 17 52 11 68 68 N 3 6 30.35 1028 10 16.0934 0 0
2:35 pm 14:35 Cloudy 63 17 52 11 68 68 N 5 7 30.35 1028 10 16.0934 0 0
2:55 pm 14:55 Cloudy 63 17 52 11 68 68 N 5 7 30.35 1028 10 16.0934 0 0
3:15 pm 15:15 Cloudy 63 17 52 11 68 68 N 3 6 30.35 1028 10 16.0934 0 0
3:35 pm 15:35 Cloudy 63 17 52 11 68 68 NNE 5 7 30.35 1028 10 16.0934 0 0
3:55 pm 15:55 Cloudy 63 17 52 11 68 68 NNE 5 7 30.36 1028 10 16.0934 0 0
4:15 pm 16:15 Cloudy 61 16 50 10 68 68 Calm 30.36 1028 10 16.0934 0 0
4:35 pm 16:35 Cloudy 61 16 50 10 68 68 NE 3 6 30.36 1028 10 16.0934 0 0
4:55 pm 16:55 Cloudy 61 16 50 10 68 68 NNE 5 7 30.36 1028 10 16.0934 0 0
5:15 pm 17:15 Cloudy 61 16 50 10 68 68 NNE 3 6 30.37 1028 10 16.0934 0 0
5:35 pm 17:35 Cloudy 61 16 50 10 68 68 NNE 5 7 30.38 1029 10 16.0934 0 0
5:55 pm 17:55 Cloudy 61 16 50 10 68 68 NNE 3 6 30.38 1029 10 16.0934 0 0
6:15 pm 18:15 Cloudy 61 16 50 10 68 68 Calm 30.39 1029 10 16.0934 0 0
6:35 pm 18:35 Cloudy 59 15 50 10 72 72 NNE 3 6 30.39 1029 10 16.0934 0 0
6:55 pm 18:55 Cloudy 59 15 50 10 72 72 NNE 3 6 30.39 1029 10 16.0934 0 0
7:15 pm 19:15 Cloudy 59 15 50 10 72 72 NNE 5 7 30.39 1029 10 16.0934 0 0
7:35 pm 19:35 Cloudy 59 15 50 10 72 72 NNE 6 9 30.4 1029 10 16.0934 0 0
7:55 pm 19:55 Cloudy 59 15 50 10 72 72 NNE 6 9 30.4 1029 10 16.0934 0 0
8:15 pm 20:15 Cloudy 59 15 50 10 72 72 NNE 6 9 30.4 1029 10 16.0934 0 0
8:35 pm 20:35 Cloudy 59 15 50 10 72 72 NNE 6 9 30.4 1029 10 16.0934 0 0
8:55 pm 20:55 Cloudy 57 14 48 9 72 72 NNE 6 9 30.4 1029 10 16.0934 0 0
9:15 pm 21:15 Cloudy 57 14 48 9 72 72 NNE 6 9 30.4 1029 10 16.0934 0 0
9:35 pm 21:35 Cloudy 55 13 46 8 72 72 NNE 6 9 30.4 1030 10 16.0934 0 0
9:55 pm 21:55 Cloudy 55 13 46 8 72 72 NNE 5 7 30.4 1030 10 16.0934 0 0
10:15 pm 22:15 Cloudy 55 13 46 8 72 72 NNE 5 7 30.4 1030 10 16.0934 0 0
10:35 pm 22:35 Cloudy 55 13 45 7 67 67 NNE 5 7 30.4 1030 10 16.0934 0 0
10:55 pm 22:55 Cloudy 55 13 45 7 67 67 NNE 5 7 30.4 1030 10 16.0934 0 0
11:15 pm 23:15 Cloudy 55 13 45 7 67 67 NNE 5 7 30.41 1030 10 16.0934 0 0
11:35 pm 23:35 Cloudy 55 13 45 7 67 67 NNE 5 7 30.41 1030 10 16.0934 0 0
11:55 pm 23:55 Cloudy 54 12 43 6 67 67 NNE 7 11 30.41 1030 10 16.0934 0 0

Powered by AerisWeather